Wind_Speed
48 47 46 45 45 44 43 41 40 39 37 35 32 29 26 24 22 21 20 19 19 20 20 21 23 25 27 28 29 30 31 32 34 35 37 39 39 40
54 52 51 49 49 48 46 45 44 42 40 38 36 32 30 27 25 23 22 21 21 21 22 22 23 24 26 28 29 29 29 30 32 35 36 38 39 39
62 58 56 55 53 51 50 48 47 45 43 41 39 36 33 30 27 25 23 23 23 23 23 23 23 24 26 27 28 29 29 29 29 31 33 34 36 38
70 66 62 59 57 55 53 52 50 49 46 44 42 39 36 33 30 27 25 24 24 24 24 24 24 24 26 27 27 28 28 27 27 27 28 30 33 35
75 74 70 65 61 59 58 55 53 52 50 47 44 41 38 35 32 29 27 26 25 25 25 25 24 24 25 26 26 26 26 26 25 24 24 25 27 29
76 77 77 73 67 62 60 59 57 54 52 50 47 44 41 38 34 32 29 27 26 26 25 25 25 25 26 26 25 25 25 25 25 24 23 22 22 23
77 78 79 79 74 69 62 60 60 58 55 53 50 47 43 40 37 34 31 29 28 26 25 25 25 25 26 26 25 24 24 23 23 22 21 21 21 21
74 76 78 80 79 76 69 63 59 58 57 55 52 49 46 43 39 36 33 30 29 28 27 26 26 25 25 26 25 25 24 22 21 20 19 19 19 19
67 71 75 78 79 78 77 69 62 57 57 56 55 52 48 45 42 38 35 32 30 29 28 27 26 26 26 26 26 25 24 23 22 21 20 20 19 20
59 62 68 73 76 77 77 75 69 61 56 56 54 52 50 48 44 41 37 33 31 29 28 27 26 26 25 26 26 26 25 24 23 22 22 21 21 21
52 54 58 64 71 75 75 74 72 69 61 56 54 53 51 49 46 42 38 35 32 30 28 27 26 26 25 25 25 25 25 25 24 23 23 23 22 22
45 46 50 54 61 68 71 71 72 71 67 61 56 52 51 49 47 43 39 36 33 30 29 27 27 26 25 24 24 24 24 24 24 24 23 23 23 23
39 40 41 45 52 58 63 66 68 69 68 65 59 55 51 49 46 44 40 37 34 31 30 28 27 25 24 24 24 24 24 24 24 24 24 24 23 23
35 36 37 38 41 47 53 58 63 66 66 65 62 57 54 49 45 43 41 37 35 33 31 30 28 26 25 24 25 24 24 24 24 24 24 24 23 23
32 33 32 32 34 38 43 49 55 60 64 65 63 57 54 51 47 44 41 38 36 34 32 30 28 27 26 25 25 25 24 24 24 24 23 23 23 23
29 29 29 28 29 31 35 41 47 53 59 62 61 58 53 51 48 44 41 38 37 35 33 31 29 28 26 25 25 24 24 24 25 24 24 23 22 22
27 27 26 26 26 28 31 35 40 46 53 57 59 57 53 50 48 45 42 40 38 35 34 32 31 29 27 26 25 24 24 24 24 23 23 23 22 21
25 25 25 25 26 27 30 33 36 43 50 55 57 57 53 50 47 45 43 41 38 36 35 34 32 30 28 27 25 24 24 23 23 23 22 22 22 22
23 24 24 24 25 27 29 32 35 41 48 53 54 55 52 49 47 45 43 41 39 37 36 34 33 31 29 28 26 25 24 24 24 24 23 23 23 22
22 23 23 24 25 26 28 31 36 42 48 52 53 53 51 49 47 45 43 41 39 37 35 34 32 30 29 28 26 25 25 25 25 25 24 24 24 24
20 22 22 23 23 25 28 32 38 44 49 52 52 51 49 48 47 44 43 41 40 37 35 33 32 30 29 27 26 25 25 25 25 25 25 25 25 25
18 19 20 21 22 25 28 33 39 47 50 51 52 51 49 47 45 44 43 41 38 36 34 33 31 29 28 27 27 26 25 25 25 25 26 26 27 28
15 16 17 19 21 23 29 35 42 48 50 51 52 50 47 46 45 43 41 39 36 34 33 31 30 28 28 28 27 26 26 25 26 26 27 28 29 30
Wind_Direction
239 236 234 233 232 231 230 230 231 231 230 230 231 233 236 240 244 250 256 261 266 269 272 271 267 261 255 253 251 251 250 250 249 247 248 247 247 247
239 237 235 234 233 232 231 231 231 232 231 229 230 232 234 238 243 249 255 260 265 268 270 271 268 263 258 254 253 251 251 252 252 250 249 248 248 248
238 237 236 235 233 232 232 231 231 232 232 231 230 230 232 235 241 247 254 259 263 266 270 271 269 264 259 255 254 253 253 254 256 255 253 252 252 251
238 236 234 234 233 232 231 231 231 231 232 233 232 231 232 234 238 244 250 257 261 264 268 271 269 265 259 256 254 253 253 254 255 256 256 255 254 252
238 236 235 234 233 232 231 230 231 231 231 233 233 232 232 233 236 240 247 253 259 262 266 270 270 266 259 254 253 252 252 251 253 255 256 256 253 250
236 235 235 234 233 232 230 228 228 229 229 231 232 232 232 233 235 238 244 250 255 259 264 269 270 265 259 254 252 251 250 251 252 255 255 255 257 254
235 234 234 234 233 231 229 227 227 227 228 228 230 231 231 232 234 237 242 248 252 256 261 267 268 264 258 254 251 250 249 250 249 250 252 253 254 253
235 234 233 232 232 231 230 228 225 225 225 225 227 229 230 230 232 235 239 244 248 252 257 263 266 263 257 252 249 249 249 249 248 248 251 252 251 251
235 234 233 232 231 231 231 229 228 225 224 224 226 227 228 229 230 232 236 240 244 249 255 261 264 261 256 250 248 248 247 247 248 249 252 252 250 249
233 233 232 232 231 230 231 231 231 227 222 221 222 223 225 226 227 229 232 237 241 246 252 257 259 257 254 250 247 247 247 248 248 249 251 251 249 246
230 230 231 232 231 230 230 231 231 230 227 224 222 221 222 223 224 225 229 233 238 243 247 252 254 253 252 251 248 247 247 247 247 248 249 248 247 245
223 225 228 229 230 230 230 230 230 230 230 228 225 223 221 221 221 222 226 230 234 240 244 248 249 249 248 248 248 246 246 246 247 248 248 247 245 243
216 216 220 225 227 229 229 229 229 229 230 230 228 225 223 221 220 220 223 227 231 236 239 242 244 244 244 244 246 245 246 246 247 248 249 247 245 243
209 210 213 218 222 224 226 227 227 227 226 228 227 226 223 221 219 218 220 223 228 232 235 238 240 240 242 243 244 246 247 247 247 247 246 244 241 239
203 203 207 212 215 219 222 224 225 225 224 225 225 224 224 222 219 218 218 221 224 228 231 233 236 237 242 242 244 247 246 246 244 242 241 239 236 233
200 201 204 208 212 215 218 221 223 223 221 221 221 221 221 219 217 216 216 219 222 226 228 230 234 238 240 242 244 245 243 242 240 237 234 230 228 225
200 201 203 208 213 217 219 220 221 219 216 214 215 216 217 215 214 214 214 216 220 224 225 229 233 236 239 241 243 243 240 236 233 230 225 222 219 216
200 203 207 212 217 222 223 222 220 216 211 209 208 210 211 211 211 212 213 215 218 222 225 227 231 234 237 238 238 236 233 229 223 218 217 216 215 215
206 209 213 218 222 225 224 221 216 209 203 200 200 203 205 206 207 209 210 213 217 220 224 228 231 233 235 236 233 230 225 220 217 216 215 215 216 218
207 212 218 223 227 227 223 217 207 199 194 192 193 195 198 202 205 207 209 212 215 219 224 228 229 231 233 232 229 225 220 217 216 216 217 218 221 226
209 215 221 224 226 222 214 206 197 190 186 185 188 191 194 198 202 205 208 210 213 217 222 224 227 229 229 228 226 224 222 220 219 220 222 225 230 236
211 214 217 220 218 210 205 199 191 184 180 181 185 188 191 195 199 203 206 209 212 216 220 223 226 227 226 224 223 222 222 223 224 226 230 235 241 246
206 209 212 214 210 205 197 190 185 182 178 179 183 186 188 192 196 200 203 207 210 214 218 222 224 224 224 224 223 224 225 228 230 233 237 243 248 253
Height
5738 5742 5746 5751 5757 5762 5767 5772 5777 5781 5786 5789 5793 5796 5800 5803 5805 5808 5810 5811 5813 5814 5815 5815 5815 5816 5817 5818 5820 5821 5823 5825 5827 5829 5831 5834 5837 5840
5724 5729 5734 5739 5745 5751 5756 5762 5767 5772 5777 5782 5786 5789 5793 5796 5799 5802 5804 5806 5807 5809 5810 5810 5811 5811 5811 5812 5813 5815 5817 5818 5820 5822 5823 5825 5828 5830
5708 5715 5721 5727 5732 5738 5745 5751 5756 5762 5767 5773 5777 5781 5785 5789 5792 5795 5798 5800 5802 5803 5805 5805 5805 5805 5806 5806 5807 5808 5810 5811 5813 5815 5816 5818 5819 5822
5690 5698 5705 5711 5718 5725 5731 5738 5745 5751 5757 5762 5768 5773 5778 5782 5785 5789 5791 5794 5796 5797 5799 5799 5799 5799 5799 5800 5801 5802 5803 5805 5807 5808 5809 5811 5812 5814
5671 5679 5687 5694 5702 5709 5717 5724 5732 5739 5746 5752 5758 5764 5769 5774 5778 5781 5784 5787 5789 5791 5793 5793 5793 5793 5794 5794 5795 5796 5798 5799 5801 5801 5803 5804 5805 5806
5650 5659 5668 5677 5686 5693 5700 5709 5717 5725 5733 5741 5748 5754 5760 5765 5770 5774 5777 5780 5783 5785 5786 5787 5787 5787 5788 5789 5790 5791 5792 5794 5795 5796 5797 5798 5799 5801
5629 5638 5648 5658 5669 5677 5685 5693 5702 5711 5720 5728 5736 5744 5751 5756 5761 5766 5770 5773 5776 5778 5780 5781 5781 5781 5782 5783 5784 5785 5787 5788 5790 5791 5792 5794 5795 5796
5608 5618 5628 5638 5650 5661 5670 5679 5687 5696 5706 5715 5724 5732 5741 5747 5752 5757 5762 5766 5769 5772 5773 5775 5775 5776 5776 5777 5778 5780 5782 5783 5784 5786 5787 5789 5790 5792
5590 5599 5609 5620 5631 5642 5654 5664 5673 5683 5693 5702 5711 5721 5729 5737 5743 5748 5753 5758 5762 5764 5767 5768 5769 5770 5770 5771 5773 5774 5776 5778 5779 5781 5783 5784 5786 5788
5574 5583 5592 5603 5614 5625 5636 5648 5659 5670 5680 5690 5700 5709 5717 5725 5732 5739 5745 5750 5754 5757 5760 5762 5763 5764 5765 5766 5767 5769 5771 5773 5774 5776 5778 5780 5782 5784
5560 5569 5578 5587 5597 5610 5622 5635 5647 5657 5667 5677 5687 5696 5705 5714 5722 5730 5736 5741 5745 5750 5753 5755 5757 5758 5758 5759 5761 5763 5765 5767 5769 5771 5773 5775 5777 5779
5551 5559 5567 5575 5583 5594 5607 5619 5631 5643 5655 5666 5675 5685 5694 5703 5712 5720 5727 5733 5738 5742 5746 5748 5750 5752 5752 5754 5755 5757 5759 5761 5763 5765 5767 5769 5771 5774
5541 5549 5557 5564 5573 5583 5595 5606 5617 5629 5642 5654 5665 5675 5684 5694 5703 5711 5719 5725 5731 5735 5739 5742 5744 5746 5747 5749 5750 5752 5754 5756 5757 5759 5761 5763 5765 5768
5534 5542 5550 5557 5565 5574 5584 5594 5604 5617 5630 5642 5654 5665 5675 5685 5695 5703 5710 5717 5723 5728 5732 5735 5738 5740 5742 5743 5745 5747 5748 5750 5751 5753 5755 5757 5760 5762
5530 5538 5545 5552 5559 5567 5575 5583 5593 5605 5618 5631 5645 5656 5666 5676 5686 5694 5701 5708 5714 5720 5724 5728 5731 5734 5736 5738 5739 5741 5743 5744 5746 5748 5750 5752 5755 5757
5527 5534 5541 5547 5554 5561 5567 5575 5584 5595 5607 5620 5633 5646 5657 5667 5677 5686 5694 5701 5707 5713 5718 5722 5725 5728 5730 5732 5734 5736 5737 5739 5741 5743 5745 5747 5750 5753
5524 5531 5538 5544 5549 5555 5561 5568 5576 5585 5596 5609 5622 5635 5648 5659 5669 5678 5687 5694 5701 5706 5711 5715 5719 5722 5724 5726 5728 5730 5732 5733 5735 5738 5740 5743 5746 5749
5522 5528 5534 5539 5544 5549 5555 5561 5568 5576 5586 5598 5612 5627 5640 5652 5662 5671 5680 5688 5694 5700 5705 5709 5712 5715 5718 5721 5723 5725 5727 5729 5731 5733 5737 5740 5743 5746
5520 5525 5530 5535 5539 5544 5548 5554 5560 5568 5578 5591 5605 5619 5633 5645 5655 5665 5673 5681 5688 5693 5698 5702 5706 5709 5712 5715 5718 5720 5722 5724 5727 5730 5733 5736 5740 5743
5518 5522 5526 5530 5534 5538 5542 5547 5553 5562 5573 5586 5600 5613 5626 5638 5649 5659 5667 5675 5682 5687 5692 5697 5701 5704 5707 5710 5713 5715 5718 5720 5723 5727 5730 5733 5736 5739
5516 5519 5523 5526 5529 5532 5536 5542 5548 5558 5569 5583 5596 5609 5621 5633 5644 5653 5661 5668 5675 5681 5686 5691 5695 5698 5701 5705 5708 5711 5714 5717 5720 5723 5726 5729 5731 5733
5514 5517 5520 5522 5525 5528 5532 5538 5545 5555 5567 5580 5593 5605 5616 5628 5638 5647 5655 5663 5669 5675 5680 5685 5689 5693 5697 5700 5703 5706 5710 5713 5716 5719 5721 5724 5726 5727
5513 5515 5517 5519 5521 5524 5529 5535 5543 5553 5565 5578 5590 5602 5612 5623 5633 5642 5650 5657 5664 5670 5675 5680 5685 5688 5692 5695 5699 5702 5705 5708 5711 5714 5716 5718 5719 5721